Weather reports worldwide

Advertisment
Grazzanise, Italy (16253): temperature & dewpoint: 15.05.2019 16:00:00 - 21.05.2019 16:00:00 (CEST)Grazzanise, Italy (16253): wind speed: 15.05.2019 16:00:00 - 21.05.2019 16:00:00 (CEST)Grazzanise, Italy (16253): wind direction: 15.05.2019 16:00:00 - 21.05.2019 16:00:00 (CEST)Grazzanise, Italy (16253): reduced air pressure: 15.05.2019 16:00:00 - 21.05.2019 16:00:00 (CEST)Grazzanise, Italy (16253): visibility: 15.05.2019 16:00:00 - 21.05.2019 16:00:00 (CEST)Grazzanise, Italy (16253): sunshine duration: 15.05.2019 16:00:00 - 21.05.2019 16:00:00 (CEST)
Date & Time tt [°C] td [°C] ff [km/h] ff [kn] dd ppp [hPa] vv [km] sd [min]
21.05.2019 16:00:00 - - - - - - - -
21.05.2019 15:00:00 21,0 15,0 18 10 W - 10 -
21.05.2019 14:00:00 21,0 14,9 21 11 W 1016,3 15 60
21.05.2019 13:00:00 20,0 14,0 22 12 WSW - 10 -
21.05.2019 12:00:00 19,0 14,0 22 12 WSW - 10 -
21.05.2019 11:00:00 19,0 14,9 18 10 WSW 1015,4 15 0
21.05.2019 10:00:00 19,0 17,0 21 11 WSW - 10 -
21.05.2019 09:00:00 17,0 15,0 13 7 W - 10 -
21.05.2019 08:00:00 15,8 13,8 9 5 WSW 1013,6 10 0
21.05.2019 07:00:00 15,0 14,0 4 2 ENE - 10 -
21.05.2019 06:00:00 15,0 14,0 4 2 WNW - 10 -
21.05.2019 05:00:00 14,8 13,2 11 6 SSE 1013,0 20 -
21.05.2019 04:00:00 15,0 13,0 4 2 S - 10 -
21.05.2019 03:00:00 15,0 14,0 4 2 SSE - 10 -
21.05.2019 02:00:00 15,0 13,9 8 4 SSW 1013,2 20 -
21.05.2019 01:00:00 14,0 13,0 5 3 SSW - 10 -
21.05.2019 00:00:00 15,0 14,0 5 3 SSW - 10 -
20.05.2019 23:00:00 15,2 14,7 4 2 SSE 1013,1 20 -
20.05.2019 22:00:00 15,0 15,0 9 5 SSW - 10 -
20.05.2019 21:00:00 15,0 14,0 5 3 SSW - 10 -
20.05.2019 20:00:00 17,0 15,4 8 4 W 1012,3 20 -
20.05.2019 19:00:00 17,0 15,0 8 4 W - 10 -
20.05.2019 18:00:00 17,0 14,0 9 5 W - 10 -
20.05.2019 17:00:00 19,0 12,0 16 9 SW 1012,1 20 48
20.05.2019 16:00:00 20,0 13,0 13 7 WSW - 10 -
20.05.2019 15:00:00 20,0 13,0 26 14 WSW - 10 -
20.05.2019 14:00:00 20,0 14,8 26 14 SW 1011,8 15 36
20.05.2019 13:00:00 20,0 16,0 8 4 S - 10 -
20.05.2019 12:00:00 17,0 15,0 13 7 SE - 10 -
20.05.2019 11:00:00 14,2 12,8 13 7 E 1011,9 8 0
20.05.2019 10:00:00 14,0 12,0 15 8 SE - 7 -
20.05.2019 09:00:00 14,0 12,0 9 5 SW - 5 -
20.05.2019 08:00:00 13,4 11,6 26 14 SSW 1010,0 5 0
20.05.2019 07:00:00 14,0 12,0 15 8 SW - 5 -
20.05.2019 06:00:00 13,0 12,0 11 6 NNE - 5 -
20.05.2019 05:00:00 14,0 12,7 4 2 SSE 1009,3 20 -
20.05.2019 04:00:00 14,0 13,0 9 5 SSE - 10 -
20.05.2019 03:00:00 13,0 12,0 8 4 SSE - 10 -
20.05.2019 02:00:00 13,0 12,2 5 3 SSE 1009,8 20 -
20.05.2019 01:00:00 13,0 12,0 5 3 SW - 10 -
20.05.2019 00:00:00 13,0 12,0 8 4 SW - 10 -
19.05.2019 23:00:00 13,8 13,2 9 5 SW 1009,3 20 -
19.05.2019 22:00:00 14,0 13,0 9 5 WSW - 10 -
19.05.2019 21:00:00 15,0 14,0 11 6 SW - 10 -
19.05.2019 20:00:00 16,0 13,5 15 8 WSW 1009,1 10 48
19.05.2019 19:00:00 18,0 14,0 21 11 W - 10 -
19.05.2019 18:00:00 18,0 14,0 26 14 WSW - 10 -
19.05.2019 17:00:00 18,4 14,3 22 12 W 1007,3 15 -
19.05.2019 16:00:00 19,0 14,0 26 14 W - 10 -
19.05.2019 15:00:00 19,0 15,0 24 13 W - 10 -
19.05.2019 14:00:00 19,6 15,5 22 12 W 1006,4 15 -
19.05.2019 13:00:00 20,0 16,0 22 12 W - 10 -
19.05.2019 12:00:00 19,0 16,0 18 10 W - 10 -
19.05.2019 11:00:00 18,2 16,2 18 10 WSW 1005,9 12 -
19.05.2019 10:00:00 19,0 16,0 15 8 SW - 10 -
19.05.2019 09:00:00 18,0 16,0 4 2 ESE - 7 -
19.05.2019 08:00:00 14,8 12,8 4 2 ENE 1006,1 4,0 -
19.05.2019 07:00:00 - - - - - - - -
19.05.2019 06:00:00 - - - - - - - -
19.05.2019 05:00:00 13,4 11,6 0 0 N 1006,2 10 -
19.05.2019 04:00:00 13,0 12,0 8 4 ENE - 10 -
19.05.2019 03:00:00 14,0 12,0 4 2 SW - 10 -
19.05.2019 02:00:00 13,6 12,3 5 3 ENE 1007,5 15 -
19.05.2019 01:00:00 14,0 13,0 4 2 NE - 10 -
19.05.2019 00:00:00 14,0 13,0 4 2 ENE - 10 -
18.05.2019 23:00:00 14,4 13,6 5 3 SSE 1007,5 20 -
18.05.2019 22:00:00 15,0 14,0 4 2 SE - 10 -
18.05.2019 21:00:00 16,0 15,0 4 2 ESE - 10 -
18.05.2019 20:00:00 17,6 15,0 9 5 SW 1007,1 20 60
18.05.2019 19:00:00 19,0 14,0 18 10 SSW - 10 -
18.05.2019 18:00:00 20,0 14,0 18 10 SW - 10 -
18.05.2019 17:00:00 19,0 15,1 22 12 SSW 1006,7 15 18
18.05.2019 16:00:00 19,0 15,0 18 10 S - 10 -
18.05.2019 15:00:00 20,0 15,0 18 10 S - 10 -
18.05.2019 14:00:00 20,0 14,4 22 12 SSW 1007,3 12 0
18.05.2019 13:00:00 19,0 16,0 22 12 S - 10 -
18.05.2019 12:00:00 20,0 16,0 18 10 SSE - 10 -
18.05.2019 11:00:00 19,0 16,2 22 12 S 1007,3 12 0
18.05.2019 10:00:00 19,0 16,0 22 12 S - 10 -
18.05.2019 09:00:00 17,0 15,0 11 6 SSE - 10 -
18.05.2019 08:00:00 16,8 14,8 15 8 SSE 1006,8 12 0
18.05.2019 07:00:00 16,0 14,0 9 5 ESE - 10 -
18.05.2019 06:00:00 15,0 13,0 9 5 SE - 10 -
18.05.2019 05:00:00 14,0 12,2 8 4 E 1007,2 10 -
18.05.2019 04:00:00 13,0 12,0 4 2 NNW - 10 -
18.05.2019 03:00:00 12,0 11,0 8 4 NE - 10 -
18.05.2019 02:00:00 12,0 11,1 9 5 NNE 1008,2 10 -
18.05.2019 01:00:00 13,0 12,0 0 0 N - 10 -
18.05.2019 00:00:00 14,0 13,0 0 0 N - 10 -
17.05.2019 23:00:00 14,4 13,4 0 0 N 1008,2 10 -
17.05.2019 22:00:00 14,0 13,0 5 3 ENE - 10 -
17.05.2019 21:00:00 16,0 15,0 4 2 NNW - 10 -
17.05.2019 20:00:00 17,0 14,5 9 5 WSW 1008,4 20 12
17.05.2019 19:00:00 18,0 15,0 15 8 WSW - 10 -
17.05.2019 18:00:00 21,0 14,0 11 6 SW - 10 -
17.05.2019 17:00:00 21,0 14,2 16 9 SW 1009,5 20 60
17.05.2019 16:00:00 21,0 13,0 15 8 WSW - 10 -
17.05.2019 15:00:00 21,0 12,0 13 7 WSW - 10 -
17.05.2019 14:00:00 21,0 13,0 16 9 WSW 1010,6 20 60
17.05.2019 13:00:00 20,0 13,0 16 9 SW - 10 -
17.05.2019 12:00:00 20,0 14,0 9 5 WSW - 10 -
17.05.2019 11:00:00 19,0 11,6 5 3 W 1011,2 10 60
17.05.2019 10:00:00 17,0 13,0 0 0 N - 10 -
17.05.2019 09:00:00 16,0 11,0 5 3 NNE - 10 -
17.05.2019 08:00:00 13,0 11,1 11 6 NE 1011,0 20 6
17.05.2019 07:00:00 11,0 9,0 8 4 N - 10 -
17.05.2019 06:00:00 10,0 9,0 8 4 NNE - 10 -
17.05.2019 05:00:00 9,8 8,2 0 0 N 1010,6 15 -
17.05.2019 04:00:00 10,0 8,0 - - - - 10 -
17.05.2019 03:00:00 10,0 9,0 8 4 N - 10 -
17.05.2019 02:00:00 10,0 9,1 9 5 N 1011,2 15 -
17.05.2019 01:00:00 10,0 9,0 8 4 NNE - 10 -
17.05.2019 00:00:00 12,0 11,0 2 1 NNW - 10 -
16.05.2019 23:00:00 12,0 11,4 2 1 N 1011,3 12 -
16.05.2019 22:00:00 13,0 11,0 4 2 E - 10 -
16.05.2019 21:00:00 14,0 14,0 4 2 NW - 10 -
16.05.2019 20:00:00 17,6 13,5 11 6 W 1009,9 25 12
16.05.2019 19:00:00 19,0 9,0 4 2 E - 10 -
16.05.2019 18:00:00 20,0 7,0 4 2 E - 10 -
16.05.2019 17:00:00 20,0 9,0 13 7 E 1009,2 20 60
16.05.2019 16:00:00 20,0 12,0 18 10 E - 10 -
16.05.2019 15:00:00 19,0 10,0 18 10 E - 10 -
16.05.2019 14:00:00 18,8 10,4 21 11 ENE 1010,0 20 48
16.05.2019 13:00:00 18,0 11,0 24 13 NE - 10 -
16.05.2019 12:00:00 19,0 10,0 26 14 ENE - 10 -
16.05.2019 11:00:00 17,0 11,1 24 13 ENE 1010,2 20 30
16.05.2019 10:00:00 16,0 11,0 21 11 ENE - 10 -
16.05.2019 09:00:00 15,0 11,0 5 3 NE - 10 -
16.05.2019 08:00:00 13,8 9,8 18 10 NE 1009,3 25 48
16.05.2019 07:00:00 13,0 11,0 16 9 NE - 10 -
16.05.2019 06:00:00 12,0 9,0 11 6 ENE - 10 -
16.05.2019 05:00:00 12,0 9,2 15 8 ENE 1010,4 20 -
16.05.2019 04:00:00 12,0 9,0 22 12 ENE - 10 -
16.05.2019 03:00:00 12,0 10,0 21 11 ENE - 10 -
16.05.2019 02:00:00 12,0 9,9 21 11 ENE 1011,4 20 -
16.05.2019 01:00:00 12,0 10,0 15 8 NE - 10 -
16.05.2019 00:00:00 12,0 10,0 16 9 NE - 10 -
15.05.2019 23:00:00 11,8 10,2 16 9 ENE 1011,4 12 -
15.05.2019 22:00:00 12,0 10,0 18 10 NE - 8 -
15.05.2019 21:00:00 12,0 10,0 18 10 NE - 6 -
15.05.2019 20:00:00 12,0 10,7 4 2 E 1010,5 3,5 -
15.05.2019 19:00:00 14,0 13,0 8 4 N - 3,0 -
15.05.2019 18:00:00 15,0 14,0 13 7 ENE - 8 -
15.05.2019 17:00:00 14,4 12,8 15 8 NE 1009,3 5 0
15.05.2019 16:00:00 14,0 13,0 15 8 NE - 7 -

tt = temperature
td = dewpoint
ff = wind speed
dd = wind direction
ppp = reduced air pressure
vv = visibility
sd = sunshine duration

Next stations